Location: Bocianicha
(51.5066°N, 19.2563°E)
Time: 12:49:15
(UTC+00:00)

USA 229 - Pass Details

Date: 15 June 2025
Orbit: 856 x 1355 km, 63.4° (Epoch: 26 June)

Event Time Altitude Azimuth Distance (km) Brightness Sun altitude
Rises 00:10:52 0° 314° (NW) 3,939 7.0 -12.8°
Reaches altitude 10° 00:13:26 10° 313° (NW) 3,046 6.4 -12.6°
Maximum altitude 00:20:46 69° 232° (SW) 1,322 4.0 -12.2°
Drops below altitude 10° 00:28:51 10° 151° (SSE) 3,343 5.9 -11.7°
Sets 00:31:48 0° 150° (SSE) 4,343 6.5 -11.5°
